SWA2186 KBNA-KVPS

Flight info

Callsign SWA2186
Flight time 0h 59m
Altitude 33000
Route FLAME4 GENDE MGMRY/N0447F320 CORKY
Aircraft B38M/M-SADE2E3GHIJ4J7P2RWZ/LB1D1

Departure

Time 2026-04-23 21:18
Airport Nashville International Airport (KBNA)

Arrival

Time 2026-04-23 22:17
Airport Destin-Fort Walton Beach Airport (KVPS)
Time Latitude Longitude Altitude Speed Heading
2026-04-23 21:05 36.12860 -86.66921 571 ft 0 kts 253°
2026-04-23 21:07 36.12864 -86.66904 590 ft 4 kts 246°
2026-04-23 21:07 36.12878 -86.66880 574 ft 4 kts 205°
2026-04-23 21:07 36.12895 -86.66881 578 ft 2 kts 131°
2026-04-23 21:08 36.12896 -86.66883 571 ft 1 kts 130°
2026-04-23 21:11 36.12895 -86.66881 571 ft 1 kts 130°
2026-04-23 21:12 36.12862 -86.66835 573 ft 15 kts 130°
2026-04-23 21:12 36.12743 -86.66803 571 ft 21 kts 213°
2026-04-23 21:12 36.12647 -86.66900 573 ft 14 kts 207°
2026-04-23 21:12 36.12574 -86.66923 576 ft 10 kts 155°
2026-04-23 21:13 36.12506 -86.66939 574 ft 11 kts 206°
2026-04-23 21:13 36.12441 -86.66938 574 ft 10 kts 127°
2026-04-23 21:13 36.12381 -86.66870 576 ft 13 kts 137°
2026-04-23 21:13 36.12338 -86.66764 577 ft 15 kts 106°
2026-04-23 21:14 36.12304 -86.66630 577 ft 18 kts 109°
2026-04-23 21:14 36.12294 -86.66508 573 ft 11 kts 44°
2026-04-23 21:14 36.12373 -86.66471 569 ft 14 kts 17°
2026-04-23 21:14 36.12480 -86.66428 571 ft 18 kts 18°
2026-04-23 21:15 36.12604 -86.66379 572 ft 20 kts 18°
2026-04-23 21:15 36.12742 -86.66324 569 ft 23 kts 18°
2026-04-23 21:15 36.12908 -86.66257 565 ft 27 kts 18°
2026-04-23 21:15 36.13096 -86.66182 560 ft 30 kts 18°
2026-04-23 21:16 36.13221 -86.66131 559 ft 19 kts 18°
2026-04-23 21:16 36.13324 -86.66091 559 ft 13 kts 17°
2026-04-23 21:16 36.13376 -86.66047 553 ft 0 kts 71°
2026-04-23 21:16 36.13376 -86.66037 558 ft 2 kts 95°
2026-04-23 21:17 36.13369 -86.66010 558 ft 4 kts 105°
2026-04-23 21:17 36.13351 -86.65947 560 ft 11 kts 124°
2026-04-23 21:17 36.13334 -86.65941 554 ft 0 kts 200°
2026-04-23 21:17 36.13333 -86.65942 553 ft 3 kts 200°
2026-04-23 21:18 36.13059 -86.66053 561 ft 78 kts 198°
2026-04-23 21:18 36.12336 -86.66343 574 ft 138 kts 198°
2026-04-23 21:18 36.11342 -86.66723 961 ft 157 kts 194°
2026-04-23 21:18 36.10275 -86.67086 1682 ft 159 kts 197°
2026-04-23 21:19 36.09169 -86.67602 2113 ft 183 kts 201°
2026-04-23 21:19 36.07909 -86.68241 2647 ft 206 kts 202°
2026-04-23 21:19 36.06524 -86.68945 3313 ft 225 kts 200°
2026-04-23 21:19 36.05019 -86.69668 3888 ft 244 kts 201°
2026-04-23 21:20 36.03400 -86.70454 4654 ft 254 kts 201°
2026-04-23 21:20 36.01753 -86.71254 5611 ft 255 kts 201°
2026-04-23 21:20 36.00098 -86.72058 6606 ft 257 kts 201°
2026-04-23 21:20 35.98421 -86.72874 7435 ft 261 kts 201°
2026-04-23 21:21 35.96717 -86.73701 8274 ft 265 kts 201°
2026-04-23 21:21 35.94973 -86.74525 9090 ft 270 kts 197°
2026-04-23 21:21 35.93114 -86.74816 10001 ft 271 kts 184°
2026-04-23 21:21 35.91192 -86.74963 10548 ft 286 kts 184°
2026-04-23 21:22 35.89137 -86.75120 10922 ft 305 kts 184°
2026-04-23 21:22 35.87004 -86.75276 11487 ft 317 kts 184°
2026-04-23 21:22 35.84791 -86.75435 12256 ft 322 kts 184°
2026-04-23 21:22 35.82527 -86.75595 12992 ft 329 kts 184°
2026-04-23 21:23 35.80232 -86.75757 13856 ft 332 kts 184°
2026-04-23 21:23 35.77900 -86.75920 14532 ft 340 kts 184°
2026-04-23 21:23 35.75521 -86.76088 15294 ft 343 kts 184°
2026-04-23 21:23 35.73122 -86.76257 16057 ft 348 kts 184°
2026-04-23 21:24 35.70675 -86.76429 16715 ft 355 kts 185°
2026-04-23 21:24 35.68191 -86.76603 17443 ft 360 kts 185°
2026-04-23 21:24 35.65704 -86.76778 18116 ft 365 kts 184°
2026-04-23 21:24 35.63152 -86.76956 18732 ft 370 kts 185°
2026-04-23 21:25 35.60565 -86.77139 19342 ft 374 kts 185°
2026-04-23 21:25 35.57957 -86.77321 19951 ft 377 kts 184°
2026-04-23 21:25 35.55322 -86.77505 20540 ft 381 kts 184°
2026-04-23 21:25 35.52662 -86.77685 21127 ft 385 kts 185°
2026-04-23 21:26 35.49976 -86.77864 21714 ft 388 kts 184°
2026-04-23 21:26 35.47263 -86.78047 22284 ft 392 kts 184°
2026-04-23 21:26 35.44528 -86.78231 22851 ft 396 kts 184°
2026-04-23 21:26 35.41765 -86.78418 23380 ft 400 kts 184°
2026-04-23 21:27 35.39012 -86.78602 23901 ft 403 kts 184°
2026-04-23 21:27 35.36201 -86.78792 24345 ft 406 kts 184°
2026-04-23 21:27 35.33369 -86.78981 24840 ft 408 kts 184°
2026-04-23 21:27 35.30520 -86.79173 25281 ft 412 kts 184°
2026-04-23 21:28 35.27651 -86.79365 25759 ft 414 kts 184°
2026-04-23 21:28 35.24765 -86.79559 26191 ft 417 kts 184°
2026-04-23 21:28 35.21856 -86.79752 26645 ft 419 kts 184°
2026-04-23 21:28 35.18934 -86.79949 27068 ft 423 kts 184°
2026-04-23 21:29 35.16024 -86.80143 27483 ft 426 kts 184°
2026-04-23 21:29 35.13058 -86.80345 27912 ft 428 kts 184°
2026-04-23 21:29 35.10071 -86.80542 28329 ft 431 kts 184°
2026-04-23 21:29 35.07067 -86.80742 28727 ft 434 kts 184°
2026-04-23 21:30 35.04045 -86.80943 29129 ft 436 kts 184°
2026-04-23 21:30 35.01003 -86.81145 29518 ft 439 kts 184°
2026-04-23 21:30 34.97938 -86.81349 29904 ft 442 kts 184°
2026-04-23 21:30 34.94857 -86.81555 30243 ft 445 kts 184°
2026-04-23 21:31 34.91763 -86.81760 30607 ft 446 kts 184°
2026-04-23 21:31 34.88697 -86.81964 30950 ft 448 kts 184°
2026-04-23 21:31 34.85582 -86.82171 31287 ft 449 kts 184°
2026-04-23 21:31 34.82457 -86.82378 31629 ft 451 kts 184°
2026-04-23 21:32 34.79321 -86.82231 31966 ft 454 kts 171°
2026-04-23 21:32 34.76213 -86.81569 32412 ft 452 kts 172°
2026-04-23 21:32 34.73106 -86.80967 32827 ft 452 kts 172°
2026-04-23 21:32 34.69997 -86.80352 33049 ft 453 kts 172°
2026-04-23 21:33 34.63813 -86.79110 33043 ft 449 kts 172°
2026-04-23 21:33 34.57683 -86.77880 33043 ft 449 kts 173°
2026-04-23 21:34 34.51515 -86.76645 33044 ft 449 kts 172°
2026-04-23 21:34 34.45342 -86.75410 33045 ft 449 kts 172°
2026-04-23 21:35 34.39171 -86.74178 33050 ft 450 kts 172°
2026-04-23 21:35 34.32985 -86.72945 33056 ft 450 kts 172°
2026-04-23 21:36 34.23747 -86.71106 33054 ft 450 kts 172°
2026-04-23 21:37 34.17565 -86.69877 33050 ft 450 kts 172°
2026-04-23 21:37 34.11380 -86.68651 33052 ft 451 kts 172°
2026-04-23 21:38 34.05224 -86.67432 33050 ft 451 kts 172°
2026-04-23 21:38 33.99034 -86.66208 33050 ft 451 kts 172°
2026-04-23 21:39 33.92840 -86.64984 33051 ft 451 kts 172°
2026-04-23 21:39 33.86644 -86.63763 33056 ft 451 kts 172°
2026-04-23 21:40 33.80451 -86.62543 33055 ft 451 kts 172°
2026-04-23 21:40 33.74300 -86.61333 33063 ft 451 kts 172°
2026-04-23 21:41 33.68105 -86.60117 33067 ft 451 kts 172°
2026-04-23 21:41 33.61911 -86.58904 33061 ft 451 kts 172°
2026-04-23 21:42 33.55719 -86.57691 33068 ft 451 kts 172°
2026-04-23 21:42 33.49526 -86.56481 33067 ft 451 kts 172°
2026-04-23 21:43 33.43351 -86.55275 33065 ft 453 kts 172°
2026-04-23 21:43 33.37138 -86.54064 33061 ft 453 kts 172°
2026-04-23 21:44 33.30925 -86.52855 33048 ft 453 kts 172°
2026-04-23 21:44 33.24707 -86.51646 33050 ft 452 kts 172°
2026-04-23 21:45 33.18494 -86.50441 33056 ft 452 kts 172°
2026-04-23 21:45 33.12321 -86.49244 33053 ft 452 kts 172°
2026-04-23 21:46 33.06106 -86.48041 33055 ft 453 kts 172°
2026-04-23 21:46 32.99878 -86.46839 33036 ft 453 kts 172°
2026-04-23 21:47 32.93653 -86.45638 33035 ft 453 kts 172°
2026-04-23 21:47 32.87428 -86.44438 33034 ft 453 kts 172°
2026-04-23 21:48 32.81243 -86.43248 33026 ft 454 kts 172°
2026-04-23 21:48 32.74996 -86.42047 33030 ft 455 kts 172°
2026-04-23 21:49 32.68743 -86.40847 33023 ft 455 kts 172°
2026-04-23 21:49 32.62493 -86.39650 33022 ft 455 kts 172°
2026-04-23 21:50 32.56242 -86.38454 33016 ft 455 kts 172°
2026-04-23 21:50 32.50027 -86.37266 33024 ft 452 kts 172°
2026-04-23 21:50 32.46981 -86.36685 32903 ft 438 kts 172°
2026-04-23 21:51 32.43990 -86.36115 32435 ft 434 kts 172°
2026-04-23 21:51 32.41018 -86.35548 31884 ft 432 kts 172°
2026-04-23 21:51 32.38055 -86.34984 31360 ft 430 kts 172°
2026-04-23 21:51 32.35108 -86.34422 30868 ft 428 kts 172°
2026-04-23 21:52 32.32178 -86.33865 30415 ft 426 kts 172°
2026-04-23 21:52 32.29298 -86.33317 29908 ft 424 kts 172°
2026-04-23 21:52 32.26394 -86.32765 29358 ft 422 kts 172°
2026-04-23 21:52 32.23511 -86.32224 28874 ft 418 kts 173°
2026-04-23 21:53 32.20622 -86.32194 28240 ft 415 kts 189°
2026-04-23 21:53 32.17783 -86.32639 27856 ft 409 kts 187°
2026-04-23 21:53 32.14972 -86.33006 27464 ft 404 kts 188°
2026-04-23 21:53 32.12184 -86.33384 27004 ft 401 kts 188°
2026-04-23 21:54 32.09422 -86.33765 26565 ft 399 kts 188°
2026-04-23 21:54 32.06711 -86.34141 26117 ft 396 kts 188°
2026-04-23 21:54 32.03980 -86.34521 25681 ft 394 kts 188°
2026-04-23 21:54 32.01266 -86.34898 25227 ft 392 kts 188°
2026-04-23 21:55 31.98565 -86.35273 24818 ft 390 kts 188°
2026-04-23 21:55 31.95875 -86.35645 24401 ft 388 kts 188°
2026-04-23 21:55 31.93201 -86.36016 23987 ft 387 kts 188°
2026-04-23 21:55 31.90535 -86.36386 23575 ft 385 kts 188°
2026-04-23 21:56 31.87877 -86.36754 23096 ft 384 kts 188°
2026-04-23 21:56 31.85233 -86.37120 22643 ft 382 kts 188°
2026-04-23 21:56 31.82639 -86.37479 22216 ft 379 kts 188°
2026-04-23 21:56 31.80029 -86.37840 21817 ft 376 kts 188°
2026-04-23 21:57 31.77438 -86.38197 21419 ft 374 kts 188°
2026-04-23 21:57 31.74868 -86.38552 21024 ft 371 kts 188°
2026-04-23 21:57 31.72309 -86.38905 20633 ft 368 kts 188°
2026-04-23 21:57 31.69773 -86.39255 20249 ft 366 kts 188°
2026-04-23 21:58 31.67253 -86.39603 19865 ft 364 kts 188°
2026-04-23 21:58 31.64747 -86.39947 19482 ft 362 kts 188°
2026-04-23 21:58 31.62285 -86.40287 19088 ft 360 kts 188°
2026-04-23 21:58 31.59802 -86.40628 18709 ft 359 kts 188°
2026-04-23 21:59 31.57322 -86.40969 18345 ft 358 kts 188°
2026-04-23 21:59 31.54850 -86.41309 17915 ft 357 kts 188°
2026-04-23 21:59 31.52394 -86.41646 17518 ft 354 kts 188°
2026-04-23 22:00 31.47537 -86.42314 16765 ft 349 kts 188°
2026-04-23 22:00 31.45132 -86.42643 16399 ft 346 kts 189°
2026-04-23 22:00 31.42750 -86.42970 16035 ft 344 kts 189°
2026-04-23 22:00 31.40415 -86.43289 15674 ft 341 kts 188°
2026-04-23 22:01 31.38060 -86.43612 15310 ft 340 kts 189°
2026-04-23 22:01 31.35719 -86.43933 14939 ft 338 kts 188°
2026-04-23 22:01 31.33388 -86.44252 14582 ft 336 kts 189°
2026-04-23 22:01 31.31071 -86.44569 14227 ft 334 kts 188°
2026-04-23 22:02 31.28767 -86.44884 13863 ft 333 kts 188°
2026-04-23 22:02 31.26471 -86.45197 13458 ft 331 kts 189°
2026-04-23 22:02 31.24192 -86.45509 13095 ft 329 kts 188°
2026-04-23 22:02 31.21932 -86.45818 12726 ft 325 kts 188°
2026-04-23 22:03 31.19722 -86.46118 12383 ft 323 kts 189°
2026-04-23 22:03 31.17499 -86.46422 12024 ft 321 kts 189°
2026-04-23 22:03 31.15291 -86.46723 11674 ft 318 kts 188°
2026-04-23 22:03 31.13098 -86.47021 11325 ft 316 kts 188°
2026-04-23 22:04 31.10924 -86.47318 10998 ft 313 kts 188°
2026-04-23 22:04 31.08789 -86.47609 10631 ft 304 kts 188°
2026-04-23 22:04 31.06714 -86.47890 10334 ft 297 kts 188°
2026-04-23 22:04 31.04683 -86.48167 10154 ft 290 kts 187°
2026-04-23 22:05 31.02709 -86.48435 10006 ft 282 kts 187°
2026-04-23 22:05 31.00813 -86.48911 9644 ft 279 kts 204°
2026-04-23 22:05 30.99083 -86.49893 9187 ft 282 kts 207°
2026-04-23 22:05 30.97314 -86.50888 8779 ft 283 kts 206°
2026-04-23 22:06 30.95539 -86.51862 8450 ft 281 kts 205°
2026-04-23 22:06 30.93771 -86.52819 8141 ft 279 kts 205°
2026-04-23 22:06 30.92018 -86.53761 7857 ft 277 kts 204°
2026-04-23 22:06 30.90272 -86.54693 7549 ft 275 kts 204°
2026-04-23 22:07 30.88540 -86.55616 7246 ft 273 kts 204°
2026-04-23 22:07 30.86820 -86.56531 6954 ft 271 kts 203°
2026-04-23 22:07 30.85117 -86.57439 6663 ft 268 kts 202°
2026-04-23 22:07 30.83449 -86.58323 6370 ft 266 kts 201°
2026-04-23 22:08 30.81769 -86.59212 6061 ft 265 kts 202°
2026-04-23 22:08 30.80094 -86.60100 5749 ft 264 kts 202°
2026-04-23 22:08 30.78429 -86.60982 5462 ft 262 kts 202°
2026-04-23 22:08 30.76778 -86.61857 5167 ft 258 kts 202°
2026-04-23 22:09 30.75177 -86.62706 4867 ft 247 kts 202°
2026-04-23 22:09 30.73645 -86.63518 4605 ft 237 kts 201°
2026-04-23 22:09 30.72191 -86.64330 4319 ft 228 kts 206°
2026-04-23 22:09 30.70859 -86.65223 4089 ft 218 kts 206°
2026-04-23 22:10 30.69573 -86.66079 3953 ft 211 kts 206°
2026-04-23 22:10 30.68297 -86.66919 3867 ft 212 kts 205°
2026-04-23 22:10 30.67057 -86.67734 3887 ft 195 kts 206°
2026-04-23 22:10 30.65916 -86.68483 3777 ft 183 kts 204°
2026-04-23 22:11 30.64833 -86.69191 3615 ft 174 kts 205°
2026-04-23 22:11 30.63799 -86.69867 3482 ft 168 kts 204°
2026-04-23 22:11 30.62783 -86.70528 3393 ft 168 kts 205°
2026-04-23 22:11 30.61783 -86.71177 3326 ft 167 kts 204°
2026-04-23 22:12 30.60769 -86.71838 3214 ft 167 kts 205°
2026-04-23 22:12 30.59751 -86.72501 3175 ft 167 kts 204°
2026-04-23 22:12 30.58648 -86.72813 3070 ft 166 kts 173°
2026-04-23 22:12 30.57619 -86.72255 2886 ft 165 kts 137°
2026-04-23 22:13 30.56899 -86.71258 2912 ft 161 kts 127°
2026-04-23 22:13 30.56286 -86.70165 2829 ft 163 kts 125°
2026-04-23 22:13 30.55710 -86.69048 2638 ft 160 kts 123°
2026-04-23 22:13 30.55150 -86.67924 2452 ft 161 kts 123°
2026-04-23 22:14 30.54595 -86.66809 2275 ft 162 kts 123°
2026-04-23 22:14 30.54054 -86.65709 2094 ft 153 kts 124°
2026-04-23 22:14 30.53531 -86.64653 1909 ft 150 kts 124°
2026-04-23 22:14 30.53006 -86.63589 1716 ft 153 kts 124°
2026-04-23 22:15 30.52479 -86.62518 1506 ft 153 kts 124°
2026-04-23 22:15 30.51948 -86.61445 1308 ft 154 kts 124°
2026-04-23 22:15 30.51418 -86.60376 1095 ft 151 kts 126°
2026-04-23 22:15 30.50897 -86.59317 909 ft 152 kts 124°
2026-04-23 22:16 30.50371 -86.58257 719 ft 147 kts 122°
2026-04-23 22:16 30.49883 -86.57267 525 ft 140 kts 121°
2026-04-23 22:16 30.49413 -86.56297 330 ft 137 kts 120°
2026-04-23 22:16 30.48938 -86.55343 166 ft 136 kts 121°
2026-04-23 22:17 30.48498 -86.54454 105 ft 109 kts 119°
2026-04-23 22:17 30.48241 -86.53930 105 ft 54 kts 120°
2026-04-23 22:17 30.48062 -86.53567 104 ft 50 kts 120°
2026-04-23 22:17 30.47917 -86.53271 99 ft 32 kts 119°
2026-04-23 22:18 30.47817 -86.53065 101 ft 18 kts 117°
2026-04-23 22:18 30.47864 -86.52966 100 ft 16 kts 33°
2026-04-23 22:18 30.47966 -86.52903 99 ft 13 kts 10°
2026-04-23 22:18 30.48004 -86.52943 99 ft 8 kts 297°
2026-04-23 22:19 30.48035 -86.53013 99 ft 12 kts 297°
2026-04-23 22:19 30.48078 -86.53110 97 ft 16 kts 297°
2026-04-23 22:19 30.48132 -86.53230 100 ft 17 kts 297°
2026-04-23 22:19 30.48190 -86.53362 101 ft 20 kts 297°
2026-04-23 22:20 30.48256 -86.53512 101 ft 22 kts 297°
2026-04-23 22:20 30.48324 -86.53664 103 ft 20 kts 297°
2026-04-23 22:20 30.48382 -86.53800 102 ft 17 kts 296°
2026-04-23 22:20 30.48439 -86.53896 103 ft 13 kts 316°
2026-04-23 22:21 30.48505 -86.53981 100 ft 17 kts 304°
2026-04-23 22:21 30.48572 -86.54109 104 ft 20 kts 300°
2026-04-23 22:21 30.48645 -86.54255 101 ft 22 kts 299°
2026-04-23 22:21 30.48726 -86.54419 101 ft 24 kts 299°
2026-04-23 22:22 30.48812 -86.54592 105 ft 25 kts 300°
2026-04-23 22:22 30.48904 -86.54778 106 ft 27 kts 300°
2026-04-23 22:22 30.48985 -86.54942 106 ft 15 kts 300°
2026-04-23 22:22 30.49026 -86.54961 104 ft 7 kts 20°
2026-04-23 22:23 30.49092 -86.54921 102 ft 15 kts 27°
2026-04-23 22:23 30.49199 -86.54861 99 ft 20 kts 19°
2026-04-23 22:23 30.49347 -86.54842 99 ft 23 kts
2026-04-23 22:23 30.49467 -86.54835 98 ft 15 kts
2026-04-23 22:24 30.49509 -86.54876 99 ft 6 kts 277°
2026-04-23 22:24 30.49509 -86.54900 99 ft 2 kts 271°
2026-04-23 22:24 30.49509 -86.54901 99 ft 0 kts 271°